This is the latest recevied weather packets stored in our database for station/object WC4PEM-8. If no packets are shown the sender has not sent any weather packets the latest 10 day(s).
| Time | Temp. | Humidity | Pressure | Rain* | Wind** | Luminosity | Snow |
|---|---|---|---|---|---|---|---|
| 1777837262 | 24.44° C | 62% | 1015.9 hPa | 0 mm | - | - | - |
| 1777836962 | 24.44° C | 62% | 1016.1 hPa | 0 mm | - | - | - |
| 1777836662 | 25° C | 62% | 1016.2 hPa | 0 mm | - | - | - |
| 1777836412 | 25° C | 63% | 1016.2 hPa | 0 mm | - | - | - |
| 1777836362 | 25° C | 63% | 1016.2 hPa | 0 mm | - | - | - |
| 1777836062 | 25° C | 63% | 1016.4 hPa | 0 mm | - | - | - |
| 1777835942 | 24.44° C | 66% | 1016.7 hPa | 0 mm | - | - | - |
| 1777835762 | 25° C | 63% | 1016.4 hPa | 0 mm | - | - | - |
| 1777835462 | 25° C | 62% | 1016.7 hPa | 0 mm | - | - | - |
| 1777835162 | 24.44° C | 66% | 1016.7 hPa | 0 mm | - | - | - |
| 1777834862 | 24.44° C | 64% | 1016.8 hPa | 0 mm | - | - | - |
| 1777834562 | 24.44° C | 63% | 1017 hPa | 0 mm | - | - | - |
| 1777834263 | 25° C | 63% | 1017 hPa | 0 mm | - | - | - |
| 1777833963 | 24.44° C | 66% | 1016.9 hPa | 0 mm | - | - | - |
| 1777833663 | 23.89° C | 65% | 1017 hPa | 0 mm | - | - | - |
| 1777833363 | 23.89° C | 65% | 1017.1 hPa | 0 mm | - | - | - |
| 1777833062 | 24.44° C | 64% | 1017.3 hPa | 0 mm | - | - | - |
| 1777832763 | 24.44° C | 64% | 1017.3 hPa | 0 mm | - | - | - |
| 1777832463 | 24.44° C | 64% | 1017.5 hPa | 0 mm | - | - | - |
| 1777832207 | 24.44° C | 67% | 1017.5 hPa | 0 mm | - | - | - |
| 1777832163 | 24.44° C | 67% | 1017.5 hPa | 0 mm | - | - | - |
| 1777831863 | 23.89° C | 67% | 1017.5 hPa | 0 mm | - | - | - |
| 1777831563 | 23.89° C | 67% | 1017.5 hPa | 0 mm | - | - | - |
| 1777831263 | 23.89° C | 66% | 1017.6 hPa | 0 mm | - | - | - |
| 1777830963 | 23.89° C | 66% | 1017.9 hPa | 0 mm | - | - | - |
* Rain latest hour (hover to see other rain measurements)
** Current wind speed in m/s (hover to see current wind gust speed)